Other Public Products
Issued by NWS Grand Forks, ND

Home | Current Version | Previous Version | Text Only | Print | Product List | Glossary Off
Versions: 1 2 3 4 5 6 7 8 9 10 11 12 13 14 15 16 17 18 19 20 21 22 23 24 25 26 27 28 29 30 31 32 33 34 35 36 37 38 39 40 41 42 43 44 45 46 47 48 49 50

000
FPUS83 KFGF 241331
OPUFGF
PRAIRIE TO PINES WEATHER ROUNDUP
NATIONAL WEATHER SERVICE EASTERN NORTH DAKOTA/GRAND FORKS ND
800 AM CDT TUE APR 24 2018

 **SATELLITE DATA USED TO AUGMENT SKY COVER AT AUTOMATED STATIONS**
 *****  WEATHER ACROSS EASTERN NORTH DAKOTA  *****

CITY           SKY/WX    TMP DP  RH WIND       PRES   REMARKS
GRAND FORKS    PTSUNNY   37  33  85 N16       30.38R
GRND FORKS AFB PTSUNNY   40  32  74 N12       30.39
GRND FORKS NWS   N/A     39  33  79 VRB13     30.36R
BUXTON           N/A     41  39  91 N8          N/A
DEVILS LAKE    FAIR      36  29  75 N16       30.41R
FARGO          LGT RAIN  42  39  89 N6        30.34R
WAHPETON ARPT  CLOUDY    41  36  81 N16G23    30.33R
$$

 *****  WEATHER ACROSS CENTRAL AND WESTERN NORTH DAKOTA  *****

CITY           SKY/WX    TMP DP  RH WIND       PRES   REMARKS
JAMESTOWN      CLOUDY    40  37  89 N7        30.36R
BISMARCK       FAIR      40  31  70 N12       30.41R
MINOT          FAIR      36  25  64 W3        30.44R
MINOT AFB      FAIR      34  26  72 NW10      30.43R
GARRISON         N/A     34  27  75 N12       30.44R
WILLISTON      FAIR      31  25  78 CALM      30.48R
DICKINSON      FAIR      33  25  72 NW7       30.44R
HETTINGER      CLOUDY    34  29  82 NW8       30.45R
$$

 *****  OTHER OBSERVATIONS NORTHEAST NORTH DAKOTA  *****

CITY           SKY/WX    TMP DP  RH WIND       PRES   REMARKS
WALHALLA       FAIR      37  37 100 NW12      30.42R
LANGDON        FAIR      36  34  93 N10       30.41R
CAVALIER         N/A     37  30  75 NW9       30.41R
GRAFTON        FAIR      37  30  75 N13       30.42R
CANDO          FAIR      37  28  70 N10       30.44R
FORT TOTTEN      N/A     34  29  83 CALM      29.95
ROLLA          FAIR      34  28  80 N9        30.43R
RUGBY          FAIR      32  28  86 NW7       30.43R
 ***** THE ABOVE OBSERVATIONS ARE NON NWS ARE NOT QUALITY
        CONTROLLED AND MAY MIS-REPORT RAIN FOR SNOW...
$$

 *****  OTHER OBSERVATIONS SOUTHEAST NORTH DAKOTA *****

CITY           SKY/WX    TMP DP  RH WIND       PRES   REMARKS
COOPERSTOWN    FAIR      39  34  81 N13       30.38R
VALLEY CITY    PTSUNNY   39  39 100 N7        30.38R
OAKES            N/A     39  39 100 NE20G29   30.35R
GWINNER          N/A     41  39  93 NE16      30.35R FOG
SHEYENNE NWR     N/A     41  41 100 NE10      29.95S
BUFFALO          N/A     41  36  84 SW9         N/A
WYNDMERE       NOT AVBL
 ***** THE ABOVE OBSERVATIONS ARE NON NWS ARE NOT QUALITY
       CONTROLLED AND MAY MIS-REPORT RAIN FOR SNOW...
$$

  *****  WEATHER ACROSS NORTHERN MINNESOTA  *****

CITY           SKY/WX    TMP DP  RH WIND       PRES   REMARKS
FLAG ISLAND    FAIR      34  25  69 NW16G24   30.32R WCI  23
WARROAD        FAIR      36  27  69 NW14      30.34S
ROSEAU         FAIR      37  28  70 N10       30.35S
HALLOCK        FAIR      36  30  80 N7        30.40R
THF RVR FALLS  FAIR      41  31  67 N10       30.36R
HALSTAD        NOT AVBL
FOSSTON        FAIR      39  34  81 N10       30.33S
BAUDETTE       FAIR      37  29  72 NW10      30.31R
WASKISH        FAIR      41  30  65 N7        30.31S
CROOKSTON      FAIR      41  36  81 N9        30.37R
$$
  *****  WEATHER ACROSS CENTRAL AND WEST MINNESOTA  *****

CITY           SKY/WX    TMP DP  RH WIND       PRES   REMARKS
BEMIDJI        FAIR      38  32  77 N6        30.30R
PARK RAPIDS    LGT RAIN  43  34  70 N15       30.28R
WADENA         PTSUNNY   45  32  61 N12       30.28R
DETROIT LAKES  DRIZZLE   41  37  87 N3        30.33R
MOORHEAD       LGT RAIN  41  37  87 NE10      30.35S
FERGUS FALLS   CLOUDY    43  36  75 N14G23    30.29R
ELBOW LAKE     CLOUDY    44  36  73 N18G24    30.28R
MORRIS MN      CLOUDY    45  37  76 N17       30.25R
STAPLES        CLOUDY    45  30  57 N13       30.26R
WHEATON        PTSUNNY   45  37  76 N18G31    30.31R
$$
  *****  WEATHER ELSEWHERE ACROSS MINNESOTA  *****

CITY           SKY/WX    TMP DP  RH WIND       PRES   REMARKS
DULUTH         FAIR      47  30  51 E13       30.19R
INTRNTL FALLS  FAIR      40  30  67 NW7       30.27R
ELY            FAIR      39  28  65 CALM      30.23R
CLOQUET        CLOUDY    46  27  46 NE6       30.19R
BRAINERD       CLOUDY    45  28  51 N13       30.23R
HIBBING        CLOUDY    40  29  64 NW5       30.22R
ALEXANDRIA     CLOUDY    48  32  53 N13       30.25R
SAINT CLOUD    FAIR      46  35  65 N7        30.17R
MINNEAPOLIS    FAIR      50  42  74 CALM      30.12S
$$

  *****  WEATHER ACROSS SOUTH DAKOTA  *****

CITY           SKY/WX    TMP DP  RH WIND       PRES   REMARKS
SIOUX FALLS    CLOUDY    48  41  76 CALM      30.17R
BROOKINGS      CLOUDY    47  38  71 N10       30.20R
WATERTOWN      CLOUDY    44  37  76 N25G36    30.21R
HURON          LGT RAIN  46  42  86 NE17G24   30.21R FOG
SISSETON         N/A     44  39  82 N22       30.30R
ABERDEEN       LGT RAIN  42  38  85 N25G31    30.32R
MITCHELL       LGT RAIN  50  46  86 NE8       30.18R
PIERRE         CLOUDY    39  36  89 N31G43    30.26R
MOBRIDGE       LGT SNOW  35  33  92 N10       30.36R FOG
RAPID CITY     LGT SNOW  34  31  88 N23G30    30.43R FOG     WCI  22
$$

  *****  SOME WEATHER IN NEARBY STATES *****

CITY           SKY/WX    TMP DP  RH WIND       PRES   REMARKS
GLASGOW MT     FAIR      34  27  75 NW3       30.47R
GREAT FALLS MT FAIR      32  26  78 S12       30.46S WCI  23
CHEYENNE WY    CLOUDY    30  27  88 MISG      30.36R
SCOTTSBLUFF NE CLOUDY    37  33  85 NW17G25   30.40R
OMAHA NE       FAIR      46  38  73 NW3       30.14R
DES MOINES IA  FAIR      51  39  63 CALM      30.12R
DAVENPORT IA   FAIR      50  32  50 N9        30.12R
CHICAGO IL     PTSUNNY   50  38  63 N6        30.06S
EAU CLAIRE WI  FAIR      44  35  70 CALM      30.13R
LA CROSSE WI   FAIR      47  37  68 CALM      30.13R
$$

  *****  SOME NATIONAL WEATHER *****

CITY           SKY/WX    TMP DP  RH WIND       PRES   REMARKS
LA GUARDIA NY  PTSUNNY   51  43  74 NE8       30.41F
RALEIGH NC     LGT RAIN  59  58  96 E18G24    29.99F
ATLANTA GA     CLOUDY    61  60  97 NW10      29.88R
NEW ORLEANS LA FAIR      64  57  78 W8        30.03R
OKLAHOMA CITY  FAIR      59  50  72 N5        30.13R
ALBUQUERQUE NM MOCLDY    52  18  26 SE6       30.13R
SALT LAKE CITY FAIR      43  36  76 SW3       30.27R
LOS ANGELES CA CLOUDY    55  52  89 S6        30.01R FOG
BOISE ID       FAIR      44  34  67 SE6       30.34R
SEATTLE WA     FAIR      52  35  52 NE12      30.20S
$$

*** WEATHER ACROSS MANITOBA...SASKATCHEWAN AND ONTARIO ***
                ***ONTARIO***

CITY           SKY/WX    TMP DP  RH WIND       PRES   REMARKS
GERALDTON      MOSUNNY   39  28  65 W5        30.13S
THUNDER BAY    PTSUNNY   43  28  56 W5        30.20R
SIOUX LOOKOUT  PTSUNNY   32  23  69 NW14G22   30.23R WCI  22
TORONTO        CLOUDY    54  36  50 S5        30.19S
BIG TROUT LK   FLURRIES  23  18  80 N8        30.23R WCI  14
PICKLE LAKE    LGT SNOW  30  27  86 N9        30.18R WCI  22
DRYDEN         PTSUNNY   32  25  74 NW8G20    30.24R WCI  25
KENORA         PTSUNNY   30  21  69 NW12      30.29R WCI  21
$$
                *** MANITOBA***

CITY           SKY/WX    TMP DP  RH WIND       PRES   REMARKS
BRANDON        SUNNY     32  30  93 N2        30.44R
DAUPHIN        SUNNY     32  28  86 SW3       30.45R
ISLAND LAKE    PTSUNNY   19  16  86 NW9       30.38R WCI   9
PILOT MOUND      N/A     34  27  75 N10         N/A
THE PAS        SUNNY     27  21  80 S8        30.39S WCI  18
THOMPSON       MOSUNNY   14  12  92 CALM      30.37R
WINNIPEG       MOSUNNY   32  27  80 N13       30.41R WCI  22
LYNN LAKE      MOSUNNY   23  21  93 SW6       30.26F WCI  16
CHURCHILL      PTSUNNY   18  10  73 SW10      30.26F WCI   6
GILLAM         SUNNY     16   9  73 W7        30.36R WCI   6
$$
                ***SASKATCHEWAN***

CITY           SKY/WX    TMP DP  RH WIND       PRES   REMARKS
ESTEVAN        SUNNY     32  27  80 W5        30.46R
KINDERSLEY     PTCLDY    32  27  80 S9        30.34S WCI  24
LLOYDMINSTER   PTCLDY    37  28  70 SW12      30.24S
PRINCE ALBERT  MOSUNNY   32  28  86 CALM      30.33F
REGINA         MOSUNNY   32  25  74 S3        30.43R
YORKTON        SUNNY     34  28  80 SW3       30.41R



USA.gov is the U.S. government's official web portal to all federal, state and local government web resources and services.